Regional Weather Roundup
Issued by NWS

Home | Current Version | Previous Version | Text Only | Print | Product List | Glossary On
Versions: 1 2 3 4 5 6 7 8 9 10 11 12 13 14 15 16 17 18 19 20 21 22 23 24 25 26 27 28 29 30 31 32 33 34 35 36 37 38 39 40 41 42 43 44 45 46 47 48 49 50
000
ASUS46 KPQR 061410
RWROR

OREGON REGIONAL WEATHER ROUNDUP
NATIONAL WEATHER SERVICE PORTLAND OR
600 AM PST FRI MAR 06 2015

NOTE: "FAIR" INDICATES FEW OR NO CLOUDS BELOW 12,000 FEET WITH
NO SIGNIFICANT WEATHER AND/OR OBSTRUCTIONS TO VISIBILITY.

ORZ001>013-061500-
NORTHWEST OREGON


CITY           SKY/WX    TMP DP  RH WIND       PRES   REMARKS
ASTORIA        PTCLDY    36  33  89 CALM      30.35R
NEWPORT        PTCLDY    43  37  81 E7        30.37S
PORTLAND       MOCLDY    37  34  89 CALM      30.40R
VANCOUVER WA   MOCLDY    32  29  88 CALM      30.40R
SCAPPOOSE      PTCLDY    33  31  92 CALM      30.39R
HILLSBORO      PTCLDY    33  32  96 CALM      30.38R
AURORA         PTCLDY    36  35  96 CALM      30.39R
MCMINNVILLE    PTCLDY    36  33  89 CALM      30.39R
SALEM          PTCLDY    35  32  88 CALM      30.37R
CORVALLIS      CLEAR     34  30  86 CALM      30.38S
EUGENE         FOG       33  32  96 CALM      30.38R VSB 3/4
$$

ORZ021-028-061500-
SOUTHWEST OREGON


CITY           SKY/WX    TMP DP  RH WIND       PRES   REMARKS
NORTH BEND     PTCLDY    39  39 100 SE8       30.37S WCI  34
BROOKINGS      CLEAR     40  38  93 CALM      30.34S
ROSEBURG       CLEAR     38  35  89 CALM      30.37S
SEXTON SUMMIT  CLEAR     45  32  60 SE10      30.34S
MEDFORD        CLEAR     34  30  85 CALM      30.39R
$$

ORZ014>016-041-061500-
COLUMBIA GORGE


CITY           SKY/WX    TMP DP  RH WIND       PRES   REMARKS
TROUTDALE      MOCLDY    35  32  88 CALM      30.38S
THE DALLES     MOCLDY    34  30  85 CALM      30.40R
$$

ORZ029>031-041-044-049-050-061>064-502-503-505>511-061500-
EASTERN OREGON


CITY           SKY/WX    TMP DP  RH WIND       PRES   REMARKS
REDMOND        PTCLDY    30  21  69 CALM      30.37S
BEND           PTCLDY    28  21  74 S6        30.37  WCI  22
PRINEVILLE     PTCLDY    25  21  86 CALM      30.38S
KLAMATH FALLS  CLEAR     19  16  88 CALM      30.40R
LAKEVIEW       PTCLDY    18  10  73 NW5       30.41S WCI  11
HERMISTON      PTCLDY    27  24  89 E3        30.37S
PENDLETON      PTCLDY    35  25  66 SE10      30.35S WCI  27
JOHN DAY       PTCLDY    34  22  63 SE8       30.41S WCI  27
MEACHAM        CLEAR     21  18  88 CALM      30.37S
LA GRANDE      CLEAR     23  12  63 CALM      30.41R
BAKER CITY     CLEAR     22  18  85 CALM      30.42S
BURNS          MOCLDY    22  17  81 S3        30.41R
ROME             N/A     24  13  62 S3        30.40R
ONTARIO        CLEAR     25  19  78 CALM      30.46R
$$


USA.gov is the U.S. government's official web portal to all federal, state and local government web resources and services.